• en Suisse
  • Liste des pays
  • À 7 jours
  • Température de l'eau
  • Carte satellitaire
  • Carte météo
  • Widgets météo
  • user-avatar
    Se connecter

    Météo par heure à Ouina

    Ce jour, 18 Janvier, Jeudi

    Heure Température Précipitation Vent Pression Humidité
    00:00 +20°C° 0 mm 1 m/s 743 mmHg 80%
    01:00 +20°C° 0 mm 1 m/s 742 mmHg 80%
    02:00 +20°C° 0 mm 1 m/s 742 mmHg 81%
    03:00 +20°C° 0 mm 1 m/s 742 mmHg 81%
    04:00 +20°C° 0 mm 1 m/s 742 mmHg 81%
    05:00 +20°C° 0 mm 1 m/s 742 mmHg 81%
    06:00 +19°C° 0 mm 1 m/s 742 mmHg 82%
    07:00 +21°C° 0 mm 1 m/s 743 mmHg 79%
    08:00 +22°C° 0 mm 1 m/s 743 mmHg 76%
    09:00 +23°C° 0 mm 1 m/s 743 mmHg 73%
    10:00 +23°C° 0 mm 1 m/s 743 mmHg 75%
    11:00 +24°C° 0 mm 1 m/s 743 mmHg 77%
    12:00 +24°C° 0 mm 1 m/s 743 mmHg 78%
    13:00 +24°C° 0,2 mm 1 m/s 742 mmHg 82%
    14:00 +23°C° 0,2 mm 1 m/s 742 mmHg 85%
    15:00 +23°C° 0,2 mm 1 m/s 741 mmHg 89%
    16:00 +22°C° 0,4 mm 1 m/s 742 mmHg 91%
    17:00 +22°C° 0,4 mm 1 m/s 742 mmHg 94%
    18:00 +21°C° 0,4 mm 1 m/s 742 mmHg 96%
    19:00 +21°C° 0,4 mm 1 m/s 742 mmHg 97%
    20:00 +21°C° 0,4 mm 1 m/s 743 mmHg 97%
    21:00 +21°C° 0,4 mm 1 m/s 743 mmHg 98%
    22:00 +21°C° 0,2 mm 1 m/s 743 mmHg 98%
    23:00 +21°C° 0,2 mm 1 m/s 743 mmHg 98%

    Demain, 19 Janvier, Vendredi

    Heure Température Précipitation Vent Pression Humidité
    00:00 +21°C° 0,2 mm 1 m/s 743 mmHg 98%
    01:00 +21°C° 0,1 mm 1 m/s 743 mmHg 98%
    02:00 +21°C° 0,1 mm 1 m/s 742 mmHg 98%
    03:00 +21°C° 0,1 mm 1 m/s 742 mmHg 98%
    04:00 +21°C° 0 mm 1 m/s 742 mmHg 98%
    05:00 +21°C° 0 mm 1 m/s 742 mmHg 98%
    06:00 +21°C° 0 mm 1 m/s 742 mmHg 98%
    07:00 +21°C° 0,1 mm 1 m/s 742 mmHg 97%
    08:00 +22°C° 0,1 mm 1 m/s 743 mmHg 96%
    09:00 +22°C° 0,1 mm 1 m/s 743 mmHg 94%
    10:00 +23°C° 0,2 mm 1 m/s 743 mmHg 94%
    11:00 +23°C° 0,2 mm 1 m/s 743 mmHg 94%
    12:00 +23°C° 0,2 mm 1 m/s 742 mmHg 93%
    13:00 +23°C° 0,3 mm 1 m/s 741 mmHg 94%
    14:00 +23°C° 0,3 mm 1 m/s 741 mmHg 94%
    15:00 +23°C° 0,3 mm 1 m/s 740 mmHg 94%
    16:00 +23°C° 0,2 mm 1 m/s 740 mmHg 95%
    17:00 +22°C° 0,2 mm 1 m/s 741 mmHg 96%
    18:00 +22°C° 0,2 mm 1 m/s 741 mmHg 98%
    19:00 +22°C° 0,1 mm 1 m/s 741 mmHg 98%
    20:00 +22°C° 0,1 mm 1 m/s 742 mmHg 98%
    21:00 +22°C° 0,1 mm 1 m/s 742 mmHg 98%
    22:00 +22°C° 0 mm 1 m/s 742 mmHg 99%
    23:00 +22°C° 0 mm 1 m/s 742 mmHg 99%

    Après-demain, 20 Janvier, Samedi

    Heure Température Précipitation Vent Pression Humidité
    00:00 +22°C° 0 mm 1 m/s 742 mmHg 99%
    01:00 +22°C° 0 mm 1 m/s 741 mmHg 99%
    02:00 +22°C° 0 mm 1 m/s 741 mmHg 99%
    03:00 +22°C° 0 mm 1 m/s 740 mmHg 99%
    04:00 +22°C° 0 mm 1 m/s 740 mmHg 99%
    05:00 +20°C° 0 mm 0 m/s 741 mmHg 99%
    06:00 +20°C° 0 mm 0 m/s 741 mmHg 99%
    07:00 +23°C° 0 mm 1 m/s 741 mmHg 95%
    08:00 +24°C° 0 mm 1 m/s 742 mmHg 90%
    09:00 +25°C° 0 mm 1 m/s 742 mmHg 86%
    10:00 +27°C° 0,1 mm 1 m/s 742 mmHg 78%
    11:00 +28°C° 0,1 mm 1 m/s 741 mmHg 70%
    12:00 +30°C° 0,1 mm 2 m/s 741 mmHg 61%
    13:00 +30°C° 0,3 mm 2 m/s 740 mmHg 65%
    14:00 +30°C° 0,3 mm 2 m/s 739 mmHg 68%
    15:00 +29°C° 0,3 mm 2 m/s 739 mmHg 72%
    16:00 +28°C° 0,8 mm 1 m/s 739 mmHg 80%
    17:00 +26°C° 0,8 mm 1 m/s 739 mmHg 89%
    18:00 +24°C° 0,8 mm 1 m/s 740 mmHg 98%
    19:00 +23°C° 0,1 mm 1 m/s 740 mmHg 98%
    20:00 +23°C° 0,1 mm 1 m/s 741 mmHg 99%
    21:00 +21°C° 0,1 mm 0 m/s 741 mmHg 99%
    22:00 +21°C° 0 mm 0 m/s 741 mmHg 99%
    23:00 +21°C° 0 mm 0 m/s 741 mmHg 99%

    21 Janvier, Dimanche

    Heure Température Précipitation Vent Pression Humidité
    00:00 +21°C° 0 mm 0 m/s 741 mmHg 99%
    01:00 +21°C° 0,1 mm 0 m/s 740 mmHg 99%
    02:00 +21°C° 0,1 mm 0 m/s 740 mmHg 99%
    03:00 +21°C° 0,1 mm 0 m/s 739 mmHg 99%
    04:00 +23°C° 0,1 mm 1 m/s 740 mmHg 99%
    05:00 +23°C° 0,1 mm 1 m/s 740 mmHg 99%
    06:00 +23°C° 0,1 mm 1 m/s 740 mmHg 99%
    07:00 +24°C° 0,1 mm 1 m/s 740 mmHg 96%
    08:00 +25°C° 0,1 mm 1 m/s 741 mmHg 94%
    09:00 +25°C° 0,1 mm 1 m/s 741 mmHg 92%
    10:00 +26°C° 0,5 mm 1 m/s 741 mmHg 88%
    11:00 +28°C° 0,5 mm 1 m/s 740 mmHg 84%
    12:00 +29°C° 0,5 mm 2 m/s 740 mmHg 79%
    13:00 +28°C° 1 mm 1 m/s 739 mmHg 83%
    14:00 +27°C° 1 mm 1 m/s 738 mmHg 87%
    15:00 +27°C° 1 mm 1 m/s 738 mmHg 91%
    16:00 +26°C° 0,6 mm 1 m/s 738 mmHg 94%
    17:00 +25°C° 0,6 mm 1 m/s 738 mmHg 96%
    18:00 +24°C° 0,6 mm 1 m/s 739 mmHg 98%
    19:00 +23°C° 0,1 mm 1 m/s 739 mmHg 99%
    20:00 +21°C° 0,1 mm 0 m/s 740 mmHg 99%
    21:00 +21°C° 0,1 mm 0 m/s 740 mmHg 99%
    22:00 +21°C° 0,1 mm 0 m/s 740 mmHg 99%
    23:00 +21°C° 0,1 mm 0 m/s 740 mmHg 99%

    22 Janvier, Lundi

    Heure Température Précipitation Vent Pression Humidité
    00:00 +21°C° 0,1 mm 0 m/s 740 mmHg 99%
    01:00 +21°C° 0,2 mm 0 m/s 739 mmHg 99%
    02:00 +21°C° 0,2 mm 0 m/s 739 mmHg 99%
    03:00 +23°C° 0,2 mm 1 m/s 739 mmHg 99%
    04:00 +20°C° 0 mm 0 m/s 739 mmHg 99%
    05:00 +20°C° 0 mm 0 m/s 739 mmHg 99%
    06:00 +20°C° 0 mm 0 m/s 740 mmHg 99%
    07:00 +23°C° 0 mm 1 m/s 740 mmHg 96%
    08:00 +24°C° 0 mm 1 m/s 741 mmHg 92%
    09:00 +25°C° 0 mm 1 m/s 741 mmHg 89%
    10:00 +27°C° 0,3 mm 1 m/s 741 mmHg 82%
    11:00 +28°C° 0,3 mm 2 m/s 740 mmHg 75%
    12:00 +30°C° 0,3 mm 2 m/s 740 mmHg 69%
    13:00 +29°C° 1 mm 2 m/s 739 mmHg 76%
    14:00 +28°C° 1 mm 2 m/s 738 mmHg 83%
    15:00 +27°C° 1 mm 2 m/s 737 mmHg 91%
    16:00 +26°C° 2 mm 1 m/s 738 mmHg 93%
    17:00 +25°C° 2 mm 1 m/s 738 mmHg 95%
    18:00 +24°C° 2 mm 1 m/s 739 mmHg 98%
    19:00 +23°C° 1,3 mm 1 m/s 739 mmHg 98%
    20:00 +23°C° 1,3 mm 1 m/s 740 mmHg 98%
    21:00 +23°C° 1,3 mm 1 m/s 740 mmHg 99%
    22:00 +23°C° 0,3 mm 1 m/s 740 mmHg 99%
    23:00 +21°C° 0,3 mm 0 m/s 740 mmHg 99%

    23 Janvier, Mardi

    Heure Température Précipitation Vent Pression Humidité
    00:00 +21°C° 0,3 mm 0 m/s 740 mmHg 99%
    01:00 +23°C° 0,2 mm 1 m/s 739 mmHg 99%
    02:00 +23°C° 0,2 mm 1 m/s 739 mmHg 99%
    03:00 +23°C° 0,2 mm 1 m/s 739 mmHg 99%
    04:00 +23°C° 0 mm 1 m/s 739 mmHg 99%
    05:00 +22°C° 0 mm 1 m/s 739 mmHg 99%
    06:00 +20°C° 0 mm 0 m/s 740 mmHg 99%
    07:00 +23°C° 0,5 mm 1 m/s 740 mmHg 97%
    08:00 +24°C° 0,5 mm 1 m/s 741 mmHg 96%
    09:00 +25°C° 0,5 mm 1 m/s 741 mmHg 94%
    10:00 +25°C° 0,7 mm 1 m/s 741 mmHg 95%
    11:00 +25°C° 0,7 mm 1 m/s 740 mmHg 96%
    12:00 +25°C° 0,7 mm 2 m/s 740 mmHg 96%
    13:00 +25°C° 1,2 mm 1 m/s 740 mmHg 97%
    14:00 +24°C° 1,2 mm 1 m/s 739 mmHg 97%
    15:00 +24°C° 1,2 mm 1 m/s 738 mmHg 97%
    16:00 +23°C° 0,7 mm 1 m/s 739 mmHg 98%
    17:00 +23°C° 0,7 mm 1 m/s 739 mmHg 98%
    18:00 +23°C° 0,7 mm 1 m/s 740 mmHg 99%
    19:00 +20°C° 0,2 mm 0 m/s 740 mmHg 99%
    20:00 +20°C° 0,2 mm 0 m/s 740 mmHg 99%
    21:00 +20°C° 0,2 mm 0 m/s 740 mmHg 99%
    22:00 +20°C° 0,1 mm 0 m/s 740 mmHg 99%
    23:00 +19°C° 0,1 mm 0 m/s 740 mmHg 99%
    Voir plus